Rockport, TX

12:20 PM CDT on May 24, 2017 (GMT -0500)
Aransas County

Weather History for KRKP - January, 2013

Change the Weather History Date:

Saturday, January 26, 2013

  Actual Average Record
Temperature  
Mean Temperature 70 °F -  
Max Temperature 75 °F 66 °F 77 °F (2004)
Min Temperature 64 °F 46 °F 29 °F (1993)
Cooling Degree Days 4    
Growing Degree Days 20 (Base 50)    
Moisture  
Dew Point 63 °F    
Average Humidity 85    
Maximum Humidity 97    
Minimum Humidity 64    
Precipitation  
Precipitation 0.00 in - - ()
Sea Level Pressure  
Sea Level Pressure 30.12 in    
Wind  
Wind Speed 9 mph (SE)    
Max Wind Speed 14 mph    
Max Gust Speed 20 mph    
Visibility 9 miles    
Events      
Averages and records for this station are not official NWS values.
T = Trace of Precipitation, MM = Missing Value Source: NWS Daily Summary

Daily Weather History Graph

Daily Weather History Graph

Search for Another Location

Airport or City:

Trip Planner

Search our weather history database for the weather conditions in past years. The results will help you decide how hot, cold, wet, or windy it might be!

Date:

Astronomy

Jan. 26, 2013 Rise Set
Actual Time 7:18 AM CST 6:03 PM CST
Civil Twilight 6:53 AM CST 6:28 PM CST
Nautical Twilight 6:24 AM CST 6:56 PM CST
Astronomical Twilight 5:56 AM CST 7:24 PM CST
Moon 5:55 PM CST (1/26) 6:39 AM CST (1/26)
Length of Visible Light 11h 35m
Length of Day
10h 45m
Full, 100% of the Moon is Illuminated
Jan 26
Full
Jan 26
Full
Feb 3
Last Quarter
Feb 10
New
Feb 17
First Quarter

Hourly Weather History & Observations

Time (CST) Temp. Dew Point Humidity Pressure Visibility Wind Dir Wind Speed Gust Speed Precip Events Conditions
12:53 AM 66.0 °F 64.0 °F 93% 30.12 in 9.0 mi South 9.2 mph - N/A   Clear
1:50 AM 66.2 °F 64.4 °F 94% 30.11 in 10.0 mi South 8.1 mph - N/A   Mostly Cloudy
1:53 AM 66.9 °F 64.0 °F 90% 30.12 in 10.0 mi South 6.9 mph - N/A   Mostly Cloudy
2:53 AM 66.0 °F 64.0 °F 93% 30.11 in 10.0 mi SSE 6.9 mph - N/A   Mostly Cloudy
3:07 AM 66.2 °F 64.4 °F 94% 30.10 in 10.0 mi SSE 8.1 mph - N/A   Scattered Clouds
3:53 AM 66.0 °F 64.0 °F 93% 30.11 in 10.0 mi SSE 9.2 mph - N/A   Mostly Cloudy
4:08 AM 66.2 °F 64.4 °F 94% 30.10 in 10.0 mi SSE 5.8 mph - N/A   Scattered Clouds
4:53 AM 64.0 °F 62.1 °F 93% 30.11 in 7.0 mi SSE 6.9 mph - N/A   Clear
5:53 AM 64.0 °F 63.0 °F 96% 30.11 in 8.0 mi SSE 8.1 mph - N/A   Mostly Cloudy
6:04 AM 64.4 °F 62.6 °F 94% 30.11 in 7.0 mi SSE 5.8 mph - N/A   Scattered Clouds
6:13 AM 64.4 °F 62.6 °F 94% 30.11 in 7.0 mi SE 6.9 mph - N/A   Mostly Cloudy
6:53 AM 64.0 °F 62.1 °F 93% 30.12 in 8.0 mi SE 6.9 mph - N/A   Mostly Cloudy
7:19 AM 64.4 °F 62.6 °F 94% 30.12 in 7.0 mi SSE 6.9 mph - N/A   Scattered Clouds
7:53 AM 64.9 °F 64.0 °F 97% 30.13 in 8.0 mi SSE 6.9 mph - N/A   Clear
8:53 AM 69.1 °F 64.0 °F 84% 30.15 in 10.0 mi SE 8.1 mph - N/A   Clear
9:53 AM 72.0 °F 64.0 °F 76% 30.16 in 10.0 mi SE 10.4 mph - N/A   Clear
10:53 AM 73.9 °F 64.0 °F 71% 30.17 in 10.0 mi SSE 11.5 mph 18.4 mph N/A   Clear
11:18 AM 75.2 °F 64.4 °F 69% 30.16 in 10.0 mi SE 12.7 mph - N/A   Mostly Cloudy
11:25 AM 75.2 °F 64.4 °F 69% 30.16 in 10.0 mi SE 13.8 mph - N/A   Scattered Clouds
11:53 AM 75.9 °F 64.0 °F 67% 30.15 in 10.0 mi SSE 9.2 mph 16.1 mph N/A   Clear
12:53 PM 75.9 °F 63.0 °F 64% 30.13 in 10.0 mi SSE 11.5 mph 19.6 mph N/A   Clear
1:53 PM 75.0 °F 62.1 °F 64% 30.10 in 10.0 mi SSE 13.8 mph - N/A   Clear
2:53 PM 75.0 °F 63.0 °F 66% 30.10 in 10.0 mi SE 12.7 mph 19.6 mph N/A   Clear
3:53 PM 73.0 °F 63.0 °F 71% 30.09 in 10.0 mi SE 13.8 mph - N/A   Clear
4:53 PM 71.1 °F 63.0 °F 75% 30.08 in 10.0 mi SE 11.5 mph - N/A   Clear
5:53 PM 68.0 °F 63.0 °F 84% 30.08 in 10.0 mi SE 11.5 mph - N/A   Clear
6:53 PM 66.0 °F 63.0 °F 90% 30.09 in 10.0 mi SE 11.5 mph - N/A   Clear
7:53 PM 66.9 °F 63.0 °F 87% 30.10 in 10.0 mi SE 9.2 mph - N/A   Clear
8:53 PM 64.9 °F 62.1 °F 90% 30.11 in 10.0 mi ESE 8.1 mph - N/A   Clear
9:53 PM 64.9 °F 62.1 °F 90% 30.12 in 10.0 mi SE 6.9 mph - N/A   Clear
10:53 PM 64.0 °F 62.1 °F 93% 30.12 in 10.0 mi SE 5.8 mph - N/A   Clear
11:53 PM 64.0 °F 62.1 °F 93% 30.12 in 10.0 mi SE 5.8 mph - N/A   Clear